Location: Foulognes
(49.1413°N, 0.8183°W)
Time: 01:12:12
(UTC+00:00)

STARLINK-79 - Pass Details

Date: 21 October 2019
Orbit: 548 x 551 km, 53.0° (Epoch: 20 November)

Event Time Altitude Azimuth Distance (km) Brightness Sun altitude
Rises 17:46:26 0° 270° (W) 2,716 9.5 -7.9°
Reaches altitude 10° 17:48:43 10° 275° (W) 1,823 7.8 -8.3°
Maximum altitude 17:52:45 51° 352° (N) 698 4.1 -8.9°
Enters shadow 17:56:29 12° 68° (ENE) 1,701 5.5 -9.5°
